OPS 4682 DEB, 51494

Orbit data source: Space-Track

OPS 4682 DEB, 51494 is space debris in LEO originally from a launch on Sat, 03 Apr 1965 UTC launched from the Air Force Western Test Range (AFWTR). Debris objects in space refer to the collection of defunct objects orbiting the Earth. Examples of debris include non-operational satellites, rocket bodies, and fragments generated from explosions, collisions, or faulty payload assembly.

Loading next visibility...
Identifier
51494, 1965-027GE
Orbit
LEO
Country
Flag of USUS
Related business
Manufacturer
Unknown
Mission
Spacecraft
Bus & Motor
Unknown
Mass
Unknown
Launch date (UTC)
1965-04-03 (61 years ago)
Launch vehicle
Unknown
Launch site
Air Force Western Test Range (AFWTR)
Object type
Payload
Rocket body
Debris
Shape & HBR
Unknown
Radar Cross Section
Medium (>0.1 m² and <1 m²)

Expand to show TLE details & history
Last TLE update: 2 days ago

TLE from 2 days ago
0 OPS 4682 DEB
1 51494U 65027GE  26206.92766557  .00000411  00000-0  14046-2 0  9999
2 51494  90.2421   9.9046 0033228  35.3178 118.2449 12.96597328702400
Epoch: 2026-07-25T22:15Z
TLE epoch observation values (Epoch: 2026-07-25T22:15:50.305Z)
Latitude
26.13227°
Longitude
-87.56975°
Altitude
1,290.721 km
Speed
7.207 km/s
True Right ascension
12h 40m 05s
True Declination
26° 00' 22"
Sunlit
Object was in daylight at epoch
Visualization orbit readout
Latitude
Unknown
Longitude
Unknown
Altitude
Unknown
Speed
Unknown
Apparent Right ascension
Unknown
Apparent Declination
Unknown
Sunlit
N/A
Visualization observer readout
Local Sidereal Time
14:09:46
Azimuth
Unknown
Elevation
Unknown
Doppler factor
Unknown
Orbital elements
Apogee altitude
1,298.001 km
Perigee altitude
1,247.158 km
Semi-major axis
7,650.717 km
Eccentricity
0.00332
Inclination
90.2421°
RAAN
9.9046°
Arg. of periapsis
35.3178°
True anomaly
118.57967°
Mean anomaly
118.2449°
Eccentric anomaly
118.41235°
Mean motion
3.24332 °/min
Orbital period
111 mins
BSTAR
0.0014046
Loading maneuver chart data...
Computing Atmospheric mass density...
Loading historical data...
Loading historical data...
Loading historical data...
Loading historical data...
Loading historical data...
Loading historical data...
Loading historical data...

Documentation

Showing up to 5 results
|